Regional Weather Roundup
Issued by NWS

Home | Current Version | Previous Version | Graphics & Text | Print | Product List | Glossary On
Versions: 1 2 3 4 5 6 7 8 9 10 11 12 13 14 15 16 17 18 19 20 21 22 23 24 25 26 27 28 29 30 31 32 33 34 35 36 37 38 39 40 41 42 43 44 45 46 47 48 49 50
000
ASUS45 KBOI 282110
RWRID
WEATHER ROUNDUP FOR IDAHO
NATIONAL WEATHER SERVICE BOISE ID
300 PM MDT MON JUL 28 2014

NOTE: "FAIR" INDICATES FEW OR NO CLOUDS BELOW 12000 FEET
WITH NO SIGNIFICANT WEATHER AND/OR OBSTRUCTIONS TO VISIBILITY

IDZ012-014-282200-
SOUTHWEST IDAHO


CITY           SKY/WX    TMP DP  RH WIND       PRES   REMARKS
BOISE          MOSUNNY   99  40  13 S13G21    30.05F HX  94
CALDWELL       MOSUNNY   93  46  20 S6        30.06F
$$

IDZ016-017-282200-
SOUTHCENTRAL IDAHO


CITY           SKY/WX    TMP DP  RH WIND       PRES   REMARKS
BURLEY         CLOUDY    82  54  37 E5        30.17F
JEROME         CLOUDY    91  51  25 N7        30.17F
TWIN FALLS     CLOUDY    87  43  21 NW7       30.18S
$$

IDZ019>023-282200-
SOUTHEAST IDAHO


CITY           SKY/WX    TMP DP  RH WIND       PRES   REMARKS
IDAHO FALLS    CLOUDY    89  39  17 S12       30.21S
POCATELLO      MOSUNNY   88  41  19 SW16        N/A
REXBURG        CLOUDY    83  48  29 W5        30.21F
$$

IDZ006-010-011-018-031-032-282200-
CENTRAL IDAHO MOUNTAINS


CITY           SKY/WX    TMP DP  RH WIND       PRES   REMARKS
MCCALL         CLOUDY    85  43  22 VRB3      30.21F
HAILEY         CLOUDY    77  45  31 N8        30.33S
STANLEY          N/A     78  43  28 SE10      30.38R
SALMON         CLOUDY    82  37  20 CALM      30.16F
CHALLIS        CLOUDY    82  41  23 SE10      30.27R
$$

IDZ002-004-006-007-026-282200-
NORTHERN IDAHO


CITY           SKY/WX    TMP DP  RH WIND       PRES   REMARKS
LEWISTON       MOSUNNY   99  42  14 VRB3      29.99F HX  94
LOWELL           N/A     99  51  19 CALM      29.98F HX  96
COEUR D`ALENE  SUNNY     93  54  26 E8        30.07F HX  91
MULLAN PASS    MOSUNNY   77  43  29 CALM      30.35S
$$


USA.gov is the U.S. government's official web portal to all federal, state and local government web resources and services.